Year,Month,Day,Hour,Minute,Value (Times are PST for windspeed in km/hr)
2017,06,09,00,00,0.00
2017,06,09,00,01,0.00
2017,06,09,00,02,0.60
2017,06,09,00,03,2.50
2017,06,09,00,04,3.50
2017,06,09,00,05,3.00
2017,06,09,00,06,1.70
2017,06,09,00,07,1.40
2017,06,09,00,08,1.40
2017,06,09,00,09,1.80
2017,06,09,00,10,2.60
2017,06,09,00,11,2.40
2017,06,09,00,12,2.50
2017,06,09,00,13,1.70
2017,06,09,00,14,0.50
2017,06,09,00,15,2.40
2017,06,09,00,16,0.60
2017,06,09,00,17,1.00
2017,06,09,00,18,1.70
2017,06,09,00,19,0.50
2017,06,09,00,20,1.90
2017,06,09,00,21,0.30
2017,06,09,00,22,0.40
2017,06,09,00,23,0.00
2017,06,09,00,24,0.00
2017,06,09,00,25,0.00
2017,06,09,00,26,0.00
2017,06,09,00,27,0.00
2017,06,09,00,28,0.00
2017,06,09,00,29,0.20
2017,06,09,00,30,0.10
2017,06,09,00,31,0.10
2017,06,09,00,32,0.00
2017,06,09,00,33,0.00
2017,06,09,00,34,0.00
2017,06,09,00,35,0.00
2017,06,09,00,36,0.00
2017,06,09,00,37,0.00
2017,06,09,00,38,1.70
2017,06,09,00,39,3.40
2017,06,09,00,40,1.80
2017,06,09,00,41,0.40
2017,06,09,00,42,0.00
2017,06,09,00,43,2.50
2017,06,09,00,44,1.80
2017,06,09,00,45,1.60
2017,06,09,00,46,0.10
2017,06,09,00,47,0.00
2017,06,09,00,48,0.00
2017,06,09,00,49,0.00
2017,06,09,00,50,0.10
2017,06,09,00,51,0.00
2017,06,09,00,52,0.00
2017,06,09,00,53,0.00
2017,06,09,00,54,0.80
2017,06,09,00,55,0.90
2017,06,09,00,56,0.00
2017,06,09,00,57,0.00
2017,06,09,00,58,0.00
2017,06,09,00,59,0.00
2017,06,09,01,00,0.00
2017,06,09,01,01,0.00
2017,06,09,01,02,0.00
2017,06,09,01,03,0.00
2017,06,09,01,04,1.20
2017,06,09,01,05,1.10
2017,06,09,01,06,0.70
2017,06,09,01,07,1.00
2017,06,09,01,08,1.50
2017,06,09,01,09,1.50
2017,06,09,01,10,1.50
2017,06,09,01,11,0.20
2017,06,09,01,12,0.00
2017,06,09,01,13,0.00
2017,06,09,01,14,0.10
2017,06,09,01,15,2.90
2017,06,09,01,16,0.40
2017,06,09,01,17,0.00
2017,06,09,01,18,0.00
2017,06,09,01,19,0.00
2017,06,09,01,20,0.00
2017,06,09,01,21,0.00
2017,06,09,01,22,0.00
2017,06,09,01,23,0.00
2017,06,09,01,24,0.40
2017,06,09,01,25,1.10
2017,06,09,01,26,0.20
2017,06,09,01,27,0.00
2017,06,09,01,28,0.00
2017,06,09,01,29,0.00
2017,06,09,01,30,0.80
2017,06,09,01,31,2.30
2017,06,09,01,32,2.20
2017,06,09,01,33,1.90
2017,06,09,01,34,0.00
2017,06,09,01,35,3.60
2017,06,09,01,36,4.80
2017,06,09,01,37,2.50
2017,06,09,01,38,0.20
2017,06,09,01,39,0.00
2017,06,09,01,40,0.00
2017,06,09,01,41,0.00
2017,06,09,01,42,0.00
2017,06,09,01,43,0.00
2017,06,09,01,44,0.00
2017,06,09,01,45,0.00
2017,06,09,01,46,0.00
2017,06,09,01,47,0.00
2017,06,09,01,48,0.00
2017,06,09,01,49,0.00
2017,06,09,01,50,0.00
2017,06,09,01,51,0.00
2017,06,09,01,52,0.00
2017,06,09,01,53,0.00
2017,06,09,01,54,0.00
2017,06,09,01,55,0.00
2017,06,09,01,56,0.00
2017,06,09,01,57,0.00
2017,06,09,01,58,0.00
2017,06,09,01,59,0.00
2017,06,09,02,00,0.00
2017,06,09,02,01,0.00
2017,06,09,02,02,0.00
2017,06,09,02,03,0.20
2017,06,09,02,04,0.00
2017,06,09,02,05,0.00
2017,06,09,02,06,0.20
2017,06,09,02,07,0.00
2017,06,09,02,08,0.00
2017,06,09,02,09,0.00
2017,06,09,02,10,0.00
2017,06,09,02,11,0.00
2017,06,09,02,12,0.00
2017,06,09,02,13,0.00
2017,06,09,02,14,0.00
2017,06,09,02,15,0.00
2017,06,09,02,16,0.00
2017,06,09,02,17,0.00
2017,06,09,02,18,0.00
2017,06,09,02,19,0.00
2017,06,09,02,20,0.00
2017,06,09,02,21,0.00
2017,06,09,02,22,0.00
2017,06,09,02,23,0.40
2017,06,09,02,24,1.80
2017,06,09,02,25,0.00
2017,06,09,02,26,0.00
2017,06,09,02,27,0.00
2017,06,09,02,28,1.00
2017,06,09,02,29,0.10
2017,06,09,02,30,0.00
2017,06,09,02,31,0.00
2017,06,09,02,32,0.00
2017,06,09,02,33,0.00
2017,06,09,02,34,0.00
2017,06,09,02,35,0.00
2017,06,09,02,36,0.00
2017,06,09,02,37,0.60
2017,06,09,02,38,0.00
2017,06,09,02,39,0.00
2017,06,09,02,40,0.00
2017,06,09,02,41,0.00
2017,06,09,02,42,0.00
2017,06,09,02,43,0.00
2017,06,09,02,44,0.00
2017,06,09,02,45,0.00
2017,06,09,02,46,0.00
2017,06,09,02,47,0.00
2017,06,09,02,48,0.00
2017,06,09,02,49,0.30
2017,06,09,02,50,2.10
2017,06,09,02,51,3.10
2017,06,09,02,52,1.00
2017,06,09,02,53,0.00
2017,06,09,02,54,0.00
2017,06,09,02,55,0.00
2017,06,09,02,56,0.00
2017,06,09,02,57,0.00
2017,06,09,02,58,2.60
2017,06,09,02,59,4.90
2017,06,09,03,00,3.00
2017,06,09,03,01,3.30
2017,06,09,03,02,0.20
2017,06,09,03,03,0.00
2017,06,09,03,04,0.00
2017,06,09,03,05,0.00
2017,06,09,03,06,0.00
2017,06,09,03,07,0.60
2017,06,09,03,08,1.40
2017,06,09,03,09,0.70
2017,06,09,03,10,0.00
2017,06,09,03,11,0.00
2017,06,09,03,12,0.00
2017,06,09,03,13,0.00
2017,06,09,03,14,0.00
2017,06,09,03,15,0.00
2017,06,09,03,16,0.00
2017,06,09,03,17,0.00
2017,06,09,03,18,0.00
2017,06,09,03,19,0.00
2017,06,09,03,20,0.00
2017,06,09,03,21,0.00
2017,06,09,03,22,0.00
2017,06,09,03,23,0.00
2017,06,09,03,24,0.00
2017,06,09,03,25,0.00
2017,06,09,03,26,0.00
2017,06,09,03,27,0.00
2017,06,09,03,28,0.00
2017,06,09,03,29,0.00
2017,06,09,03,30,0.00
2017,06,09,03,31,0.00
2017,06,09,03,32,0.10
2017,06,09,03,33,1.20
2017,06,09,03,34,0.10
2017,06,09,03,35,0.10
2017,06,09,03,36,0.00
2017,06,09,03,37,0.00
2017,06,09,03,38,0.00
2017,06,09,03,39,0.00
2017,06,09,03,40,0.00
2017,06,09,03,41,0.00
2017,06,09,03,42,0.00
2017,06,09,03,43,0.00
2017,06,09,03,44,0.00
2017,06,09,03,45,0.00
2017,06,09,03,46,0.00
2017,06,09,03,47,0.00
2017,06,09,03,48,0.00
2017,06,09,03,49,0.00
2017,06,09,03,50,0.00
2017,06,09,03,51,0.80
2017,06,09,03,52,2.30
2017,06,09,03,53,2.60
2017,06,09,03,54,3.10
2017,06,09,03,55,2.00
2017,06,09,03,56,0.80
2017,06,09,03,57,0.00
2017,06,09,03,58,0.00
2017,06,09,03,59,0.00
2017,06,09,04,00,0.00
2017,06,09,04,01,0.00
2017,06,09,04,02,0.20
2017,06,09,04,03,1.30
2017,06,09,04,04,2.20
2017,06,09,04,05,2.20
2017,06,09,04,06,1.90
2017,06,09,04,07,1.90
2017,06,09,04,08,0.30
2017,06,09,04,09,0.00
2017,06,09,04,10,0.00
2017,06,09,04,11,0.00
2017,06,09,04,12,0.00
2017,06,09,04,13,0.00
2017,06,09,04,14,0.00
2017,06,09,04,15,0.00
2017,06,09,04,16,0.00
2017,06,09,04,17,0.00
2017,06,09,04,18,0.00
2017,06,09,04,19,0.00
2017,06,09,04,20,0.00
2017,06,09,04,21,0.00
2017,06,09,04,22,0.00
2017,06,09,04,23,0.00
2017,06,09,04,24,0.00
2017,06,09,04,25,0.00
2017,06,09,04,26,0.00
2017,06,09,04,27,0.00
2017,06,09,04,28,0.00
2017,06,09,04,29,0.00
2017,06,09,04,30,0.00
2017,06,09,04,31,0.00
2017,06,09,04,32,0.00
2017,06,09,04,33,0.00
2017,06,09,04,34,0.00
2017,06,09,04,35,0.00
2017,06,09,04,36,0.00
2017,06,09,04,37,0.00
2017,06,09,04,38,0.00
2017,06,09,04,39,0.00
2017,06,09,04,40,0.00
2017,06,09,04,41,0.00
2017,06,09,04,42,0.00
2017,06,09,04,43,0.00
2017,06,09,04,44,0.00
2017,06,09,04,45,0.00
2017,06,09,04,46,0.00
2017,06,09,04,47,0.00
2017,06,09,04,48,0.00
2017,06,09,04,49,0.00
2017,06,09,04,50,0.00
2017,06,09,04,51,0.00
2017,06,09,04,52,0.00
2017,06,09,04,53,0.00
2017,06,09,04,54,0.00
2017,06,09,04,55,0.00
2017,06,09,04,56,0.00
2017,06,09,04,57,0.00
2017,06,09,04,58,0.00
2017,06,09,04,59,0.00
2017,06,09,05,00,0.00
2017,06,09,05,01,0.00
2017,06,09,05,02,0.00
2017,06,09,05,03,0.00
2017,06,09,05,04,0.00
2017,06,09,05,05,0.00
2017,06,09,05,06,0.00
2017,06,09,05,07,0.00
2017,06,09,05,08,0.00
2017,06,09,05,09,0.00
2017,06,09,05,10,0.00
2017,06,09,05,11,0.00
2017,06,09,05,12,0.00
2017,06,09,05,13,0.00
2017,06,09,05,14,0.00
2017,06,09,05,15,0.00
2017,06,09,05,16,0.00
2017,06,09,05,17,0.00
2017,06,09,05,18,0.10
2017,06,09,05,19,1.40
2017,06,09,05,20,3.00
2017,06,09,05,21,3.30
2017,06,09,05,22,2.40
2017,06,09,05,23,1.40
2017,06,09,05,24,1.30
2017,06,09,05,25,1.20
2017,06,09,05,26,0.90
2017,06,09,05,27,1.60
2017,06,09,05,28,0.90
2017,06,09,05,29,1.10
2017,06,09,05,30,1.10
2017,06,09,05,31,0.20
2017,06,09,05,32,0.00
2017,06,09,05,33,0.20
2017,06,09,05,34,0.00
2017,06,09,05,35,0.10
2017,06,09,05,36,0.20
2017,06,09,05,37,0.10
2017,06,09,05,38,0.10
2017,06,09,05,39,0.00
2017,06,09,05,40,0.00
2017,06,09,05,41,0.00
2017,06,09,05,42,0.00
2017,06,09,05,43,1.10
2017,06,09,05,44,0.20
2017,06,09,05,45,0.10
2017,06,09,05,46,0.30
2017,06,09,05,47,0.20
2017,06,09,05,48,0.00
2017,06,09,05,49,0.00
2017,06,09,05,50,0.20
2017,06,09,05,51,0.00
2017,06,09,05,52,0.00
2017,06,09,05,53,0.00
2017,06,09,05,54,0.00
2017,06,09,05,55,0.30
2017,06,09,05,56,0.50
2017,06,09,05,57,1.00
2017,06,09,05,58,1.60
2017,06,09,05,59,1.40
2017,06,09,06,00,0.60
2017,06,09,06,01,0.20
2017,06,09,06,02,0.00
2017,06,09,06,03,0.00
2017,06,09,06,04,0.00
2017,06,09,06,05,0.30
2017,06,09,06,06,1.00
2017,06,09,06,07,0.00
2017,06,09,06,08,0.00
2017,06,09,06,09,0.00
2017,06,09,06,10,0.00
2017,06,09,06,11,0.00
2017,06,09,06,12,0.00
2017,06,09,06,13,0.00
2017,06,09,06,14,0.00
2017,06,09,06,15,0.10
2017,06,09,06,16,0.30
2017,06,09,06,17,0.60
2017,06,09,06,18,0.50
2017,06,09,06,19,0.20
2017,06,09,06,20,0.00
2017,06,09,06,21,0.00
2017,06,09,06,22,0.00
2017,06,09,06,23,0.00
2017,06,09,06,24,0.00
2017,06,09,06,25,0.00
2017,06,09,06,26,0.00
2017,06,09,06,27,0.00
2017,06,09,06,28,0.00
2017,06,09,06,29,0.00
2017,06,09,06,30,0.00
2017,06,09,06,31,0.00
2017,06,09,06,32,0.00
2017,06,09,06,33,0.00
2017,06,09,06,34,0.00
2017,06,09,06,35,0.00
2017,06,09,06,36,0.00
2017,06,09,06,37,0.00
2017,06,09,06,38,0.00
2017,06,09,06,39,0.00
2017,06,09,06,40,0.00
2017,06,09,06,41,0.00
2017,06,09,06,42,0.00
2017,06,09,06,43,0.00
2017,06,09,06,44,0.00
2017,06,09,06,45,0.00
2017,06,09,06,46,0.00
2017,06,09,06,47,1.80
2017,06,09,06,48,3.00
2017,06,09,06,49,0.20
2017,06,09,06,50,0.20
2017,06,09,06,51,0.90
2017,06,09,06,52,1.00
2017,06,09,06,53,1.90
2017,06,09,06,54,2.50
2017,06,09,06,55,3.10
2017,06,09,06,56,3.00
2017,06,09,06,57,1.50
2017,06,09,06,58,0.10
2017,06,09,06,59,0.30
2017,06,09,07,00,0.30
2017,06,09,07,01,0.00
2017,06,09,07,02,0.00
2017,06,09,07,03,0.00
2017,06,09,07,04,0.30
2017,06,09,07,05,0.60
2017,06,09,07,06,1.90
2017,06,09,07,07,2.30
2017,06,09,07,08,2.70
2017,06,09,07,09,0.40
2017,06,09,07,10,0.00
2017,06,09,07,11,0.80
2017,06,09,07,12,2.80
2017,06,09,07,13,1.30
2017,06,09,07,14,1.50
2017,06,09,07,15,1.90
2017,06,09,07,16,1.60
2017,06,09,07,17,0.40
2017,06,09,07,18,0.00
2017,06,09,07,19,0.50
2017,06,09,07,20,0.00
2017,06,09,07,21,0.00
2017,06,09,07,22,0.00
2017,06,09,07,23,0.00
2017,06,09,07,24,0.00
2017,06,09,07,25,0.00
2017,06,09,07,26,0.00
2017,06,09,07,27,0.00
2017,06,09,07,28,0.00
2017,06,09,07,29,0.00
2017,06,09,07,30,0.00
2017,06,09,07,31,0.00
2017,06,09,07,32,0.00
2017,06,09,07,33,0.00
2017,06,09,07,34,0.00
2017,06,09,07,35,0.00
2017,06,09,07,36,0.10
2017,06,09,07,37,2.00
2017,06,09,07,38,2.70
2017,06,09,07,39,2.50
2017,06,09,07,40,3.50
2017,06,09,07,41,1.00
2017,06,09,07,42,0.50
2017,06,09,07,43,2.40
2017,06,09,07,44,1.90
2017,06,09,07,45,2.70
2017,06,09,07,46,1.70
2017,06,09,07,47,2.10
2017,06,09,07,48,1.90
2017,06,09,07,49,4.60
2017,06,09,07,50,4.20
2017,06,09,07,51,2.50
2017,06,09,07,52,3.60
2017,06,09,07,53,2.50
2017,06,09,07,54,3.90
2017,06,09,07,55,2.70
2017,06,09,07,56,3.30
2017,06,09,07,57,2.60
2017,06,09,07,58,3.90
2017,06,09,07,59,5.60
2017,06,09,08,00,3.20
2017,06,09,08,01,2.50
2017,06,09,08,02,1.90
2017,06,09,08,03,2.70
2017,06,09,08,04,2.20
2017,06,09,08,05,2.70
2017,06,09,08,06,3.00
2017,06,09,08,07,4.10
2017,06,09,08,08,3.40
2017,06,09,08,09,1.40
2017,06,09,08,10,1.00
2017,06,09,08,11,2.20
2017,06,09,08,12,2.90
2017,06,09,08,13,3.80
2017,06,09,08,14,3.80
2017,06,09,08,15,3.50
2017,06,09,08,16,3.10
2017,06,09,08,17,3.40
2017,06,09,08,18,6.50
2017,06,09,08,19,9.70
2017,06,09,08,20,8.50
2017,06,09,08,21,5.60
2017,06,09,08,22,5.50
2017,06,09,08,23,5.20
2017,06,09,08,24,5.10
2017,06,09,08,25,7.20
2017,06,09,08,26,5.40
2017,06,09,08,27,5.90
2017,06,09,08,28,3.10
2017,06,09,08,29,4.10
2017,06,09,08,30,3.20
2017,06,09,08,31,3.80
2017,06,09,08,32,2.90
2017,06,09,08,33,5.60
2017,06,09,08,34,5.00
2017,06,09,08,35,4.10
2017,06,09,08,36,4.70
2017,06,09,08,37,2.50
2017,06,09,08,38,4.80
2017,06,09,08,39,5.40
2017,06,09,08,40,6.00
2017,06,09,08,41,5.70
2017,06,09,08,42,6.60
2017,06,09,08,43,5.80
2017,06,09,08,44,6.30
2017,06,09,08,45,5.80
2017,06,09,08,46,6.40
2017,06,09,08,47,6.20
2017,06,09,08,48,5.10
2017,06,09,08,49,7.00
2017,06,09,08,50,4.60
2017,06,09,08,51,4.40
2017,06,09,08,52,6.40
2017,06,09,08,53,5.60
2017,06,09,08,54,5.50
2017,06,09,08,55,6.50
2017,06,09,08,56,5.60
2017,06,09,08,57,6.40
2017,06,09,08,58,4.90
2017,06,09,08,59,5.30
2017,06,09,09,00,6.10
2017,06,09,09,01,7.20
2017,06,09,09,02,8.50
2017,06,09,09,03,7.20
2017,06,09,09,04,7.50
2017,06,09,09,05,8.60
2017,06,09,09,06,6.00
2017,06,09,09,07,6.00
2017,06,09,09,08,7.60
2017,06,09,09,09,9.30
2017,06,09,09,10,9.50
2017,06,09,09,11,8.30
2017,06,09,09,12,6.80
2017,06,09,09,13,7.70
2017,06,09,09,14,7.20
2017,06,09,09,15,3.60
2017,06,09,09,16,3.50
2017,06,09,09,17,5.10
2017,06,09,09,18,0.90
2017,06,09,09,19,3.50
2017,06,09,09,20,4.60
2017,06,09,09,21,5.30
2017,06,09,09,22,5.10
2017,06,09,09,23,5.50
2017,06,09,09,24,9.70
2017,06,09,09,25,7.30
2017,06,09,09,26,5.50
2017,06,09,09,27,5.10
2017,06,09,09,28,5.60
2017,06,09,09,29,5.40
2017,06,09,09,30,4.80
2017,06,09,09,31,4.20
2017,06,09,09,32,4.50
2017,06,09,09,33,5.40
2017,06,09,09,34,6.90
2017,06,09,09,35,9.70
2017,06,09,09,36,8.10
2017,06,09,09,37,5.90
2017,06,09,09,38,8.50
2017,06,09,09,39,6.70
2017,06,09,09,40,7.70
2017,06,09,09,41,8.30
2017,06,09,09,42,7.50
2017,06,09,09,43,5.50
2017,06,09,09,44,7.70
2017,06,09,09,45,8.10
2017,06,09,09,46,7.70
2017,06,09,09,47,6.40
2017,06,09,09,48,6.20
2017,06,09,09,49,8.90
2017,06,09,09,50,8.50
2017,06,09,09,51,7.60
2017,06,09,09,52,5.90
2017,06,09,09,53,6.20
2017,06,09,09,54,8.10
2017,06,09,09,55,7.60
2017,06,09,09,56,6.40
2017,06,09,09,57,7.30
2017,06,09,09,58,5.00
2017,06,09,09,59,5.60
2017,06,09,10,00,7.30
2017,06,09,10,01,7.70
2017,06,09,10,02,6.80
2017,06,09,10,03,7.40
2017,06,09,10,04,6.80
2017,06,09,10,05,6.80
2017,06,09,10,06,5.20
2017,06,09,10,07,6.50
2017,06,09,10,08,5.20
2017,06,09,10,09,6.40
2017,06,09,10,10,6.70
2017,06,09,10,11,5.10
2017,06,09,10,12,6.10
2017,06,09,10,13,4.90
2017,06,09,10,14,7.90
2017,06,09,10,15,7.00
2017,06,09,10,16,7.80
2017,06,09,10,17,6.20
2017,06,09,10,18,7.70
2017,06,09,10,19,6.70
2017,06,09,10,20,5.90
2017,06,09,10,21,6.70
2017,06,09,10,22,7.10
2017,06,09,10,23,7.10
2017,06,09,10,24,4.20
2017,06,09,10,25,5.10
2017,06,09,10,26,10.30
2017,06,09,10,27,7.70
2017,06,09,10,28,4.40
2017,06,09,10,29,5.80
2017,06,09,10,30,4.30
2017,06,09,10,31,3.40
2017,06,09,10,32,4.70
2017,06,09,10,33,4.20
2017,06,09,10,34,5.50
2017,06,09,10,35,2.60
2017,06,09,10,36,5.60
2017,06,09,10,37,6.30
2017,06,09,10,38,4.70
2017,06,09,10,39,5.00
2017,06,09,10,40,5.70
2017,06,09,10,41,7.20
2017,06,09,10,42,6.20
2017,06,09,10,43,3.10
2017,06,09,10,44,3.80
2017,06,09,10,45,6.00
2017,06,09,10,46,3.70
2017,06,09,10,47,3.60
2017,06,09,10,48,5.50
2017,06,09,10,49,6.50
2017,06,09,10,50,5.60
2017,06,09,10,51,5.60
2017,06,09,10,52,5.90
2017,06,09,10,53,5.50
2017,06,09,10,54,2.50
2017,06,09,10,55,3.00
2017,06,09,10,56,6.40
2017,06,09,10,57,6.30
2017,06,09,10,58,5.60
2017,06,09,10,59,5.50
2017,06,09,11,00,5.40
2017,06,09,11,01,9.10
2017,06,09,11,02,6.40
2017,06,09,11,03,4.30
2017,06,09,11,04,6.40
2017,06,09,11,05,5.70
2017,06,09,11,06,5.90
2017,06,09,11,07,6.50
2017,06,09,11,08,5.90
2017,06,09,11,09,4.40
2017,06,09,11,10,7.70
2017,06,09,11,11,7.30
2017,06,09,11,12,8.10
2017,06,09,11,13,7.10
2017,06,09,11,14,6.20
2017,06,09,11,15,10.20
2017,06,09,11,16,5.60
2017,06,09,11,17,4.40
2017,06,09,11,18,8.60
2017,06,09,11,19,7.00
2017,06,09,11,20,5.60
2017,06,09,11,21,5.40
2017,06,09,11,22,5.60
2017,06,09,11,23,6.70
2017,06,09,11,24,6.60
2017,06,09,11,25,8.00
2017,06,09,11,26,6.80
2017,06,09,11,27,9.50
2017,06,09,11,28,7.60
2017,06,09,11,29,11.10
2017,06,09,11,30,8.20
2017,06,09,11,31,8.40
2017,06,09,11,32,9.30
2017,06,09,11,33,9.10
2017,06,09,11,34,10.20
2017,06,09,11,35,6.10
2017,06,09,11,36,9.70
2017,06,09,11,37,9.30
2017,06,09,11,38,6.50
2017,06,09,11,39,6.10
2017,06,09,11,40,6.40
2017,06,09,11,41,9.80
2017,06,09,11,42,10.80
2017,06,09,11,43,7.10
2017,06,09,11,44,8.50
2017,06,09,11,45,8.50
2017,06,09,11,46,9.10
2017,06,09,11,47,7.40
2017,06,09,11,48,9.80
2017,06,09,11,49,8.00
2017,06,09,11,50,8.40
2017,06,09,11,51,6.90
2017,06,09,11,52,4.60
2017,06,09,11,53,6.40
2017,06,09,11,54,6.40
2017,06,09,11,55,7.80
2017,06,09,11,56,9.60
2017,06,09,11,57,10.10
2017,06,09,11,58,5.90
2017,06,09,11,59,7.50
2017,06,09,12,00,8.30
2017,06,09,12,01,5.30
2017,06,09,12,02,5.60
2017,06,09,12,03,9.20
2017,06,09,12,04,7.60
2017,06,09,12,05,8.70
2017,06,09,12,06,5.10
2017,06,09,12,07,3.80
2017,06,09,12,08,3.80
2017,06,09,12,09,6.90
2017,06,09,12,10,9.10
2017,06,09,12,11,5.70
2017,06,09,12,12,7.40
2017,06,09,12,13,6.60
2017,06,09,12,14,9.10
2017,06,09,12,15,7.20
2017,06,09,12,16,4.90
2017,06,09,12,17,6.60
2017,06,09,12,18,8.90
2017,06,09,12,19,8.50
2017,06,09,12,20,6.80
2017,06,09,12,21,8.90
2017,06,09,12,22,8.70
2017,06,09,12,23,8.70
2017,06,09,12,24,8.00
2017,06,09,12,25,11.20
2017,06,09,12,26,8.50
2017,06,09,12,27,8.00
2017,06,09,12,28,6.90
2017,06,09,12,29,6.40
2017,06,09,12,30,5.40
2017,06,09,12,31,4.30
2017,06,09,12,32,4.70
2017,06,09,12,33,3.50
2017,06,09,12,34,7.20
2017,06,09,12,35,6.10
2017,06,09,12,36,6.00
2017,06,09,12,37,9.00
2017,06,09,12,38,6.90
2017,06,09,12,39,7.70
2017,06,09,12,40,7.30
2017,06,09,12,41,7.70
2017,06,09,12,42,6.40
2017,06,09,12,43,6.30
2017,06,09,12,44,9.90
2017,06,09,12,45,9.40
2017,06,09,12,46,5.60
2017,06,09,12,47,8.00
2017,06,09,12,48,9.10
2017,06,09,12,49,6.70
2017,06,09,12,50,9.00
2017,06,09,12,51,6.40
2017,06,09,12,52,7.60
2017,06,09,12,53,10.40
2017,06,09,12,54,6.60
2017,06,09,12,55,5.10
2017,06,09,12,56,0.00
2017,06,09,12,57,2.60
2017,06,09,12,58,6.50
2017,06,09,12,59,6.80
2017,06,09,13,00,5.80
2017,06,09,13,01,5.50
2017,06,09,13,02,5.00
2017,06,09,13,03,3.10
2017,06,09,13,04,6.40
2017,06,09,13,05,5.90
2017,06,09,13,06,4.10
2017,06,09,13,07,3.70
2017,06,09,13,08,3.60
2017,06,09,13,09,8.90
2017,06,09,13,10,2.70
2017,06,09,13,11,1.90
2017,06,09,13,12,4.40
2017,06,09,13,13,3.00
2017,06,09,13,14,2.30
2017,06,09,13,15,6.70
2017,06,09,13,16,3.30
2017,06,09,13,17,7.00
2017,06,09,13,18,7.10
2017,06,09,13,19,6.40
2017,06,09,13,20,7.50
2017,06,09,13,21,6.40
2017,06,09,13,22,8.40
2017,06,09,13,23,8.00
2017,06,09,13,24,7.90
2017,06,09,13,25,7.10
2017,06,09,13,26,6.70
2017,06,09,13,27,4.80
2017,06,09,13,28,6.80
2017,06,09,13,29,7.90
2017,06,09,13,30,6.40
2017,06,09,13,31,6.50
2017,06,09,13,32,3.80
2017,06,09,13,33,4.30
2017,06,09,13,34,7.50
2017,06,09,13,35,1.70
2017,06,09,13,36,6.20
2017,06,09,13,37,8.50
2017,06,09,13,38,5.80
2017,06,09,13,39,5.80
2017,06,09,13,40,5.80
2017,06,09,13,41,4.90
2017,06,09,13,42,6.40
2017,06,09,13,43,8.30
2017,06,09,13,44,7.80
2017,06,09,13,45,5.80
2017,06,09,13,46,4.10
2017,06,09,13,47,7.30
2017,06,09,13,48,3.70
2017,06,09,13,49,6.10
2017,06,09,13,50,5.50
2017,06,09,13,51,5.80
2017,06,09,13,52,7.20
2017,06,09,13,53,5.40
2017,06,09,13,54,5.80
2017,06,09,13,55,7.80
2017,06,09,13,56,5.10
2017,06,09,13,57,7.10
2017,06,09,13,58,8.10
2017,06,09,13,59,7.30
2017,06,09,14,00,6.30
2017,06,09,14,01,5.80
2017,06,09,14,02,6.60
2017,06,09,14,03,6.70
2017,06,09,14,04,5.10
2017,06,09,14,05,6.40
2017,06,09,14,06,7.20
2017,06,09,14,07,4.90
2017,06,09,14,08,7.70
2017,06,09,14,09,6.00
2017,06,09,14,10,4.10
2017,06,09,14,11,5.30
2017,06,09,14,12,4.70
2017,06,09,14,13,4.60
2017,06,09,14,14,7.40
2017,06,09,14,15,4.70
2017,06,09,14,16,2.20
2017,06,09,14,17,6.80
2017,06,09,14,18,8.40
2017,06,09,14,19,6.40
2017,06,09,14,20,4.30
2017,06,09,14,21,8.20
2017,06,09,14,22,6.90
2017,06,09,14,23,7.50
2017,06,09,14,24,5.90
2017,06,09,14,25,4.40
2017,06,09,14,26,4.10
2017,06,09,14,27,2.60
2017,06,09,14,28,7.80
2017,06,09,14,29,3.70
2017,06,09,14,30,7.00
2017,06,09,14,31,7.30
2017,06,09,14,32,6.10
2017,06,09,14,33,6.00
2017,06,09,14,34,3.90
2017,06,09,14,35,6.80
2017,06,09,14,36,6.00
2017,06,09,14,37,4.60
2017,06,09,14,38,4.00
2017,06,09,14,39,3.10
2017,06,09,14,40,6.00
2017,06,09,14,41,6.40
2017,06,09,14,42,8.30
2017,06,09,14,43,11.90
2017,06,09,14,44,8.50
2017,06,09,14,45,7.70
2017,06,09,14,46,9.20
2017,06,09,14,47,8.40
2017,06,09,14,48,4.70
2017,06,09,14,49,1.90
2017,06,09,14,50,1.50
2017,06,09,14,51,4.30
2017,06,09,14,52,2.80
2017,06,09,14,53,4.40
2017,06,09,14,54,6.80
2017,06,09,14,55,6.20
2017,06,09,14,56,4.90
2017,06,09,14,57,5.50
2017,06,09,14,58,9.80
2017,06,09,14,59,7.70
2017,06,09,15,00,7.20
2017,06,09,15,01,7.70
2017,06,09,15,02,7.80
2017,06,09,15,03,3.70
2017,06,09,15,04,2.70
2017,06,09,15,05,3.00
2017,06,09,15,06,3.70
2017,06,09,15,07,2.70
2017,06,09,15,08,6.80
2017,06,09,15,09,8.10
2017,06,09,15,10,5.60
2017,06,09,15,11,8.50
2017,06,09,15,12,10.50
2017,06,09,15,13,8.40
2017,06,09,15,14,9.30
2017,06,09,15,15,9.50
2017,06,09,15,16,9.00
2017,06,09,15,17,8.90
2017,06,09,15,18,9.30
2017,06,09,15,19,9.30
2017,06,09,15,20,7.50
2017,06,09,15,21,8.40
2017,06,09,15,22,9.30
2017,06,09,15,23,8.50
2017,06,09,15,24,7.70
2017,06,09,15,25,7.70
2017,06,09,15,26,6.70
2017,06,09,15,27,7.20
2017,06,09,15,28,7.90
2017,06,09,15,29,7.60
2017,06,09,15,30,7.20
2017,06,09,15,31,5.30
2017,06,09,15,32,6.80
2017,06,09,15,33,5.60
2017,06,09,15,34,9.70
2017,06,09,15,35,8.10
2017,06,09,15,36,6.70
2017,06,09,15,37,7.00
2017,06,09,15,38,7.20
2017,06,09,15,39,5.00
2017,06,09,15,40,6.10
2017,06,09,15,41,7.90
2017,06,09,15,42,10.10
2017,06,09,15,43,9.50
2017,06,09,15,44,8.60
2017,06,09,15,45,8.30
2017,06,09,15,46,5.90
2017,06,09,15,47,2.90
2017,06,09,15,48,7.60
2017,06,09,15,49,6.40
2017,06,09,15,50,6.80
2017,06,09,15,51,4.10
2017,06,09,15,52,10.10
2017,06,09,15,53,10.30
2017,06,09,15,54,11.40
2017,06,09,15,55,10.00
2017,06,09,15,56,12.60
2017,06,09,15,57,9.90
2017,06,09,15,58,6.50
2017,06,09,15,59,6.60
2017,06,09,16,00,7.30
2017,06,09,16,01,6.90
2017,06,09,16,02,7.80
2017,06,09,16,03,7.20
2017,06,09,16,04,6.00
2017,06,09,16,05,5.50
2017,06,09,16,06,6.90
2017,06,09,16,07,6.40
2017,06,09,16,08,3.40
2017,06,09,16,09,5.10
2017,06,09,16,10,8.10
2017,06,09,16,11,7.10
2017,06,09,16,12,7.90
2017,06,09,16,13,8.80
2017,06,09,16,14,5.90
2017,06,09,16,15,5.30
2017,06,09,16,16,5.10
2017,06,09,16,17,4.30
2017,06,09,16,18,6.40
2017,06,09,16,19,6.30
2017,06,09,16,20,6.80
2017,06,09,16,21,8.10
2017,06,09,16,22,6.90
2017,06,09,16,23,8.40
2017,06,09,16,24,7.20
2017,06,09,16,25,6.40
2017,06,09,16,26,3.40
2017,06,09,16,27,6.60
2017,06,09,16,28,5.60
2017,06,09,16,29,8.10
2017,06,09,16,30,9.00
2017,06,09,16,31,8.40
2017,06,09,16,32,8.60
2017,06,09,16,33,8.60
2017,06,09,16,34,10.10
2017,06,09,16,35,11.10
2017,06,09,16,36,10.30
2017,06,09,16,37,6.90
2017,06,09,16,38,8.20
2017,06,09,16,39,9.90
2017,06,09,16,40,8.10
2017,06,09,16,41,8.30
2017,06,09,16,42,8.00
2017,06,09,16,43,8.60
2017,06,09,16,44,8.60
2017,06,09,16,45,6.40
2017,06,09,16,46,6.80
2017,06,09,16,47,5.90
2017,06,09,16,48,6.70
2017,06,09,16,49,7.60
2017,06,09,16,50,5.60
2017,06,09,16,51,6.90
2017,06,09,16,52,6.80
2017,06,09,16,53,6.00
2017,06,09,16,54,7.70
2017,06,09,16,55,5.80
2017,06,09,16,56,8.50
2017,06,09,16,57,5.50
2017,06,09,16,58,5.60
2017,06,09,16,59,8.80
2017,06,09,17,00,8.70
2017,06,09,17,01,8.30
2017,06,09,17,02,7.70
2017,06,09,17,03,5.50
2017,06,09,17,04,8.60
2017,06,09,17,05,9.40
2017,06,09,17,06,7.40
2017,06,09,17,07,7.40
2017,06,09,17,08,6.40
2017,06,09,17,09,9.10
2017,06,09,17,10,8.60
2017,06,09,17,11,6.60
2017,06,09,17,12,4.80
2017,06,09,17,13,6.00
2017,06,09,17,14,7.40
2017,06,09,17,15,8.00
2017,06,09,17,16,8.90
2017,06,09,17,17,7.60
2017,06,09,17,18,8.10
2017,06,09,17,19,7.40
2017,06,09,17,20,6.10
2017,06,09,17,21,7.30
2017,06,09,17,22,6.60
2017,06,09,17,23,7.80
2017,06,09,17,24,6.00
2017,06,09,17,25,6.80
2017,06,09,17,26,6.70
2017,06,09,17,27,5.80
2017,06,09,17,28,8.30
2017,06,09,17,29,6.50
2017,06,09,17,30,9.10
2017,06,09,17,31,8.50
2017,06,09,17,32,8.10
2017,06,09,17,33,7.70
2017,06,09,17,34,6.80
2017,06,09,17,35,7.70
2017,06,09,17,36,10.60
2017,06,09,17,37,10.90
2017,06,09,17,38,9.60
2017,06,09,17,39,11.20
2017,06,09,17,40,9.00
2017,06,09,17,41,6.70
2017,06,09,17,42,6.40
2017,06,09,17,43,8.40
2017,06,09,17,44,8.60
2017,06,09,17,45,10.80
2017,06,09,17,46,10.30
2017,06,09,17,47,9.40
2017,06,09,17,48,9.60
2017,06,09,17,49,10.20
2017,06,09,17,50,9.80
2017,06,09,17,51,9.50
2017,06,09,17,52,9.20
2017,06,09,17,53,10.00
2017,06,09,17,54,7.50
2017,06,09,17,55,9.40
2017,06,09,17,56,9.50
2017,06,09,17,57,8.10
2017,06,09,17,58,6.00
2017,06,09,17,59,6.50
2017,06,09,18,00,7.50
2017,06,09,18,01,7.90
2017,06,09,18,02,7.50
2017,06,09,18,03,6.90
2017,06,09,18,04,7.60
2017,06,09,18,05,10.10